CYZF

Yellowknife Airport

Airport
ICAO code
CYZF
IATA Code
YZF
Summary
ICAO Region
NAM
ICAO Territory
Location

Yellowknife, Northwest Territories

Serving
Yellowknife
Elevation
675 ft
Coordinates
62° 28' 5" N , 114° 26' 33" W
KCC
Airport BS
Bird Strike
Non Avian Wildlife Hazards to Aircraft
Airport CFIT
Altimeter Temperature Error Correction
Airport GND
Aircraft Ground De/Anti Icing
Airport RE
Landing on Contaminated Runways
Metar
CYZF 300700Z 36007KT 15SM FEW120 BKN160 12/06 A2974 RMK AC1AC6 SLP081

Description

International airport serving Yellowknife, the capital of the Northwest Territories.

Climatology

Subarctic climate (Köppen climate classification Dfc) - long, usually very cold winters, and short, cool to mild summers.

Runways

Designator Length Width Surface Rops
9/27 1524 46 ASP Yes/Yes
15/33 2286 46 ASP Yes/Yes

Airport map

Aerial View

SKYbrary Partners:

Safety knowledge contributed by: